CW3794 Weather Reports


Display with metric or nautical units.
time (UTC)temp
F
wind
direction
speed
MPH
gust
MPH
rain 1hr
in
rain 24hr
in
rain mn
in
humidity
%
barometer
mb
20260903180405 92 129 0.0 3.0 0.00 0.00 0.00 44 1010.2
20260903175905 92 149 0.0 3.0 0.00 0.00 0.00 44 1010.3
20260903175404 93 185 0.0 3.0 0.00 0.00 0.00 44 1010.4
20260903174405 92 185 0.0 1.0 0.00 0.00 0.00 45 1010.4
20260903173405 92 193 0.0 7.0 0.00 0.00 0.00 45 1010.5
20260903172905 91 231 0.0 0.0 0.00 0.00 0.00 45 1010.6
20260903172404 92 233 0.0 3.0 0.00 0.00 0.00 44 1010.6
20260903171405 92 247 0.0 0.0 0.00 0.00 0.00 45 1010.5
20260903170404 91 248 0.0 0.0 0.00 0.00 0.00 47 1010.7
20260903165905 92 248 0.0 0.0 0.00 0.00 0.00 46 1010.4
20260903165405 92 247 0.0 0.0 0.00 0.00 0.00 46 1010.4
20260903164904 91 247 0.0 0.0 0.00 0.00 0.00 47 1010.4
20260903163405 89 247 0.0 0.0 0.00 0.00 0.00 48 1010.6
20260903162905 89 247 0.0 0.0 0.00 0.00 0.00 49 1010.6
20260903162405 89 247 0.0 0.0 0.00 0.00 0.00 48 1010.7
20260903161904 89 247 0.0 0.0 0.00 0.00 0.00 49 1010.6
20260903161405 88 247 0.0 0.0 0.00 0.00 0.00 50 1010.8
20260903160905 88 247 0.0 0.0 0.00 0.00 0.00 51 1010.7
20260903155905 87 246 0.0 0.0 0.00 0.00 0.00 52 1010.7
20260903155404 86 247 0.0 0.0 0.00 0.00 0.00 52 1010.7
20260903154905 86 247 0.0 0.0 0.00 0.00 0.00 52 1010.7
20260903153905 87 220 0.0 0.0 0.00 0.00 0.00 51 1010.7
20260903153405 87 220 0.0 0.0 0.00 0.00 0.00 52 1010.8
20260903152905 87 220 0.0 0.0 0.00 0.00 0.00 53 1010.8
20260903152405 87 220 0.0 0.0 0.00 0.00 0.00 53 1010.8
20260903151905 86 220 0.0 0.0 0.00 0.00 0.00 53 1010.8
20260903151404 86 220 0.0 0.0 0.00 0.00 0.00 56 1010.8
20260903150405 85 220 0.0 0.0 0.00 0.00 0.00 57 1010.9
20260903145905 85 220 0.0 0.0 0.00 0.00 0.00 58 1010.8
20260903145405 85 220 0.0 0.0 0.00 0.00 0.00 58 1010.8
20260903144404 85 220 0.0 0.0 0.00 0.00 0.00 59 1010.7
20260903143905 85 220 0.0 0.0 0.00 0.00 0.00 59 1010.7
20260903143405 85 220 0.0 0.0 0.00 0.00 0.00 59 1010.8
20260903142405 84 220 0.0 0.0 0.00 0.00 0.00 60 1010.8
20260903141904 84 220 0.0 0.0 0.00 0.00 0.00 60 1010.8
20260903141405 84 220 0.0 0.0 0.00 0.00 0.00 60 1010.7
20260903140905 83 220 0.0 0.0 0.00 0.00 0.00 60 1010.6
20260903140404 83 220 0.0 0.0 0.00 0.00 0.00 60 1010.5
20260903135905 83 220 0.0 0.0 0.00 0.00 0.00 61 1010.5
20260903135404 82 220 0.0 0.0 0.00 0.00 0.00 61 1010.4
20260903134405 82 220 0.0 0.0 0.00 0.00 0.00 62 1010.3
20260903133905 82 220 0.0 0.0 0.00 0.00 0.00 62 1010.3
20260903133404 82 220 0.0 0.0 0.00 0.00 0.00 62 1010.3
20260903132904 81 220 0.0 0.0 0.00 0.00 0.00 62 1010.3
20260903132404 81 220 0.0 0.0 0.00 0.00 0.00 62 1010.1
20260903131904 81 220 0.0 0.0 0.00 0.00 0.00 62 1010.1
20260903130904 81 220 0.0 0.0 0.00 0.00 0.00 62 1010.1
20260903130405 81 220 0.0 0.0 0.00 0.00 0.00 62 1010.1
20260903125905 81 220 0.0 0.0 0.00 0.00 0.00 62 1010.0
20260903125405 81 220 0.0 0.0 0.00 0.00 0.00 62 1009.9
20260903124905 81 220 0.0 0.0 0.00 0.00 0.00 62 1009.8
20260903124404 81 220 0.0 0.0 0.00 0.00 0.00 62 1009.7
20260903123905 81 220 0.0 0.0 0.00 0.00 0.00 62 1009.6
20260903123404 82 220 0.0 0.0 0.00 0.00 0.00 61 1009.6
20260903122905 82 220 0.0 0.0 0.00 0.00 0.00 61 1009.5
20260903122404 82 220 0.0 0.0 0.00 0.00 0.00 61 1009.4
20260903121904 82 220 0.0 0.0 0.00 0.00 0.00 61 1009.4
20260903121404 82 220 0.0 0.0 0.00 0.00 0.00 61 1009.3
20260903120904 82 220 0.0 0.0 0.00 0.00 0.00 60 1009.3
20260903120405 82 220 0.0 0.0 0.00 0.00 0.00 60 1009.2
20260903115904 83 220 0.0 0.0 0.00 0.00 0.00 59 1009.2
20260903115405 83 219 0.0 0.0 0.00 0.00 0.00 59 1009.1
20260903114904 83 219 0.0 0.0 0.00 0.00 0.00 58 1009.1
20260903114405 83 220 0.0 0.0 0.00 0.00 0.00 58 1009.1
20260903113905 83 220 0.0 0.0 0.00 0.00 0.00 58 1009.0
20260903113404 83 220 0.0 0.0 0.00 0.00 0.00 57 1008.9
20260903112404 84 220 0.0 0.0 0.00 0.00 0.00 57 1008.9
20260903111904 84 219 0.0 0.0 0.00 0.00 0.00 56 1008.9
20260903111405 84 214 0.0 0.0 0.00 0.00 0.00 56 1008.9
20260903110905 84 210 0.0 0.0 0.00 0.00 0.00 55 1008.8
20260903110405 84 209 0.0 0.0 0.00 0.00 0.00 55 1008.9
20260903105905 84 210 0.0 0.0 0.00 0.00 0.00 55 1008.9
20260903105404 84 209 0.0 0.0 0.00 0.00 0.00 54 1008.9
20260903104904 84 209 0.0 0.0 0.00 0.00 0.00 54 1008.9
20260903103904 85 207 0.0 0.0 0.00 0.00 0.00 53 1008.8
20260903103405 85 206 0.0 0.0 0.00 0.00 0.00 52 1008.8
20260903102904 85 206 0.0 0.0 0.00 0.00 0.00 51 1008.7
20260903100904 85 208 0.0 1.0 0.00 0.00 0.00 49 1009.0
20260903100405 85 211 0.0 0.0 0.00 0.00 0.00 48 1008.9
20260903095904 85 210 0.0 0.0 0.00 0.00 0.00 46 1008.9
20260903095405 85 221 0.0 0.0 0.00 0.00 0.00 44 1009.0
20260903094904 85 216 0.0 0.0 0.00 0.00 0.00 39 1009.1
20260903094405 85 217 0.0 0.0 0.00 0.00 0.00 39 1009.1
20260903093904 84 217 0.0 0.0 0.00 0.00 0.00 35 1009.2
20260903093405 84 217 0.0 0.0 0.00 0.00 0.00 35 1009.3
20260903092904 84 217 0.0 0.0 0.00 0.00 0.00 35 1009.2
20260903092404 83 217 0.0 0.0 0.00 0.00 0.00 35 1009.1
20260903091905 83 217 0.0 0.0 0.00 0.00 0.00 37 1009.1
20260903091404 83 217 0.0 0.0 0.00 0.00 0.00 38 1009.1
20260903090905 83 216 0.0 0.0 0.00 0.00 0.00 39 1009.1
20260903085905 82 217 0.0 0.0 0.00 0.00 0.00 39 1009.1
20260903085404 83 217 0.0 0.0 0.00 0.00 0.00 37 1009.0
20260903084904 83 217 0.0 0.0 0.00 0.00 0.00 37 1009.0
20260903083904 83 216 0.0 0.0 0.00 0.00 0.00 35 1009.0
20260903083404 83 216 0.0 0.0 0.00 0.00 0.00 35 1009.0
20260903082904 84 217 0.0 0.0 0.00 0.00 0.00 35 1009.0
20260903081904 85 217 0.0 0.0 0.00 0.00 0.00 33 1008.9
20260903081405 85 217 0.0 0.0 0.00 0.00 0.00 33 1008.9
20260903080904 86 216 0.0 0.0 0.00 0.00 0.00 32 1008.8
20260903080405 86 216 0.0 0.0 0.00 0.00 0.00 32 1008.8
20260903075905 87 217 0.0 0.0 0.00 0.00 0.00 31 1008.8
20260903075405 87 217 0.0 0.0 0.00 0.00 0.00 31 1008.8
20260903074905 88 216 0.0 0.0 0.00 0.00 0.00 31 1008.8
20260903074404 89 217 0.0 0.0 0.00 0.00 0.00 29 1008.7
20260903073405 89 217 0.0 0.0 0.00 0.00 0.00 30 1008.7
20260903072404 89 217 0.0 0.0 0.00 0.00 0.00 29 1008.7
20260903071405 89 217 0.0 0.0 0.00 0.00 0.00 29 1008.7
20260903070904 89 217 0.0 0.0 0.00 0.00 0.00 29 1008.7
20260903070405 89 217 0.0 0.0 0.00 0.00 0.00 30 1008.6
20260903065404 89 217 0.0 0.0 0.00 0.00 0.00 29 1008.6
20260903064904 89 217 0.0 0.0 0.00 0.00 0.00 30 1008.6
20260903063904 89 217 0.0 0.0 0.00 0.00 0.00 32 1008.6
20260903063404 89 216 0.0 0.0 0.00 0.00 0.00 33 1008.6
20260903062905 88 217 0.0 0.0 0.00 0.00 0.00 33 1008.6
20260903062404 88 217 0.0 0.0 0.00 0.00 0.00 32 1008.5
20260903061905 87 217 0.0 0.0 0.00 0.00 0.00 37 1008.6
20260903061404 87 217 0.0 0.0 0.00 0.00 0.00 36 1008.6
20260903060904 87 216 0.0 0.0 0.00 0.00 0.00 36 1008.7
20260903060405 87 217 0.0 0.0 0.00 0.00 0.00 36 1008.6
20260903055904 88 217 0.0 0.0 0.00 0.00 0.00 38 1008.7
20260903055405 88 216 0.0 0.0 0.00 0.00 0.00 37 1008.7
20260903054404 89 217 0.0 0.0 0.00 0.00 0.00 38 1008.6
20260903053904 89 217 0.0 0.0 0.00 0.00 0.00 37 1008.6
20260903053405 90 217 0.0 0.0 0.00 0.00 0.00 37 1008.5
20260903052904 90 217 0.0 0.0 0.00 0.00 0.00 36 1008.5
20260903052405 91 217 0.0 0.0 0.00 0.00 0.00 36 1008.5
20260903051904 91 217 0.0 0.0 0.00 0.00 0.00 36 1008.5
20260903051405 91 217 0.0 0.0 0.00 0.00 0.00 36 1008.5
20260903050904 91 217 0.0 0.0 0.00 0.00 0.00 35 1008.5
20260903050405 91 217 0.0 0.0 0.00 0.00 0.00 35 1008.5
20260903045904 91 217 0.0 0.0 0.00 0.00 0.00 34 1008.6
20260903045404 91 217 0.0 0.0 0.00 0.00 0.00 34 1008.6
20260903044904 91 217 0.0 0.0 0.00 0.00 0.00 34 1008.6
20260903044404 91 217 0.0 0.0 0.00 0.00 0.00 34 1008.5
20260903043905 91 217 0.0 0.0 0.00 0.00 0.00 33 1008.6
20260903043404 92 217 0.0 0.0 0.00 0.00 0.00 33 1008.5
20260903042904 92 216 0.0 0.0 0.00 0.00 0.00 33 1008.5
20260903042405 93 217 0.0 0.0 0.00 0.00 0.00 32 1008.4
20260903041905 93 216 0.0 0.0 0.00 0.00 0.00 32 1008.4
20260903041404 93 217 0.0 0.0 0.00 0.00 0.00 31 1008.3
20260903040904 94 217 0.0 0.0 0.00 0.00 0.00 31 1008.2
20260903040404 94 217 0.0 0.0 0.00 0.00 0.00 31 1008.2
20260903035904 94 217 0.0 0.0 0.00 0.00 0.00 30 1008.2
20260903035404 94 217 0.0 0.0 0.00 0.00 0.00 30 1008.2
20260903034404 94 217 0.0 0.0 0.00 0.00 0.00 30 1008.1
20260903033904 95 217 0.0 0.0 0.00 0.00 0.00 29 1008.0
20260903033404 95 261 0.0 0.0 0.00 0.00 0.00 29 1008.0
20260903032904 95 261 0.0 0.0 0.00 0.00 0.00 30 1008.0
20260903031904 95 261 0.0 0.0 0.00 0.00 0.00 31 1007.9
20260903031404 95 258 0.0 0.0 0.00 0.00 0.00 31 1007.8
20260903030404 95 228 0.0 0.0 0.00 0.00 0.00 32 1007.8
20260903025904 95 226 0.0 0.0 0.00 0.00 0.00 32 1007.8
20260903025404 95 226 0.0 0.0 0.00 0.00 0.00 32 1007.8
20260903024904 95 227 0.0 0.0 0.00 0.00 0.00 32 1007.7
20260903023904 96 228 0.0 0.0 0.00 0.00 0.00 32 1007.6
20260903023404 96 230 0.0 0.0 0.00 0.00 0.00 32 1007.5
20260903022904 96 227 0.0 0.0 0.00 0.00 0.00 31 1007.6
20260903022404 96 220 0.0 0.0 0.00 0.00 0.00 31 1007.5
20260903021904 96 214 0.0 0.0 0.00 0.00 0.00 31 1007.4
20260903021404 96 213 0.0 0.0 0.00 0.00 0.00 31 1007.4
20260903020905 96 213 0.0 0.0 0.00 0.00 0.00 30 1007.4
20260903020404 96 213 0.0 0.0 0.00 0.00 0.00 30 1007.4
20260903015904 96 213 0.0 0.0 0.00 0.00 0.00 31 1007.4
20260903015404 96 213 0.0 0.0 0.00 0.00 0.00 31 1007.4
20260903014904 96 213 0.0 0.0 0.00 0.00 0.00 31 1007.3
20260903014404 96 213 0.0 0.0 0.00 0.00 0.00 31 1007.3
20260903013904 96 213 0.0 0.0 0.00 0.00 0.00 31 1007.3
20260903013404 96 214 0.0 0.0 0.00 0.00 0.00 30 1007.3
20260903012904 96 213 0.0 0.0 0.00 0.00 0.00 30 1007.3
20260903012404 97 213 0.0 0.0 0.00 0.00 0.00 30 1007.3
20260903011905 97 211 0.0 0.0 0.00 0.00 0.00 30 1007.4
20260903011404 97 207 0.0 0.0 0.00 0.00 0.00 30 1007.4
20260903010904 97 207 0.0 1.0 0.00 0.00 0.00 30 1007.4
20260903005904 98 210 0.0 0.0 0.00 0.00 0.00 30 1007.4
20260903005404 98 203 0.0 3.0 0.00 0.00 0.00 30 1007.4
20260903004904 98 221 0.0 0.0 0.00 0.00 0.00 30 1007.5
20260903004404 98 220 0.0 2.0 0.00 0.00 0.00 29 1007.4
20260903003904 98 228 0.0 0.0 0.00 0.00 0.00 30 1007.4
20260903002404 98 247 0.0 3.0 0.00 0.00 0.00 30 1007.4
20260903001404 98 216 0.0 0.0 0.00 0.00 0.00 31 1007.5
20260903000904 98 216 0.0 0.0 0.00 0.00 0.00 31 1007.5
20260903000404 98 215 0.0 0.0 0.00 0.00 0.00 31 1007.6
20260902235904 98 216 0.0 0.0 0.00 0.00 0.00 31 1007.7
20260902235404 98 242 0.0 1.0 0.00 0.00 0.00 32 1007.7
20260902234904 98 253 0.0 0.0 0.00 0.00 0.00 32 1007.7
20260902233923 98 202 0.0 1.0 0.00 0.00 0.00 32 1007.8
20260902233420 99 236 0.0 0.0 0.00 0.00 0.00 31 1007.8
20260902232404 99 216 0.0 0.0 0.00 0.00 0.00 32 1007.8
20260902231904 99 253 0.0 0.0 0.00 0.00 0.00 32 1007.8
20260902231404 99 250 0.0 1.0 0.00 0.00 0.00 32 1007.9
20260902230904 99 213 0.0 2.0 0.00 0.00 0.00 32 1008.0
20260902230404 99 241 0.0 3.0 0.00 0.00 0.00 31 1008.0
20260902225904 99 227 0.0 3.0 0.00 0.00 0.00 31 1008.0
20260902225404 99 254 0.0 0.0 0.00 0.00 0.00 32 1008.1
20260902224904 99 254 0.0 0.0 0.00 0.00 0.00 31 1008.2
20260902223904 98 225 0.0 0.0 0.00 0.00 0.00 32 1008.4
20260902223404 99 226 0.0 3.0 0.00 0.00 0.00 32 1008.4
20260902222904 99 210 0.0 1.0 0.00 0.00 0.00 31 1008.4
20260902221903 99 225 0.0 2.0 0.00 0.00 0.00 32 1008.6
20260902221404 99 221 0.0 0.0 0.00 0.00 0.00 31 1008.6
20260902220904 99 194 0.0 3.0 0.00 0.00 0.00 31 1008.6
20260902220405 99 215 0.0 3.0 0.00 0.00 0.00 31 1008.7
20260902215904 99 207 0.0 0.0 0.00 0.00 0.00 31 1008.7
20260902215404 99 231 0.0 0.0 0.00 0.00 0.00 31 1008.8
20260902214905 99 232 0.0 3.0 0.00 0.00 0.00 31 1008.9
20260902214404 99 221 0.0 1.0 0.00 0.00 0.00 31 1008.8
20260902213904 99 225 0.0 3.0 0.00 0.00 0.00 30 1008.9
20260902212404 99 261 0.0 0.0 0.00 0.00 0.00 32 1009.0
20260902211904 99 261 0.0 1.0 0.00 0.00 0.00 32 1009.0
20260902211404 98 261 0.0 0.0 0.00 0.00 0.00 33 1009.1
20260902210904 98 261 0.0 1.0 0.00 0.00 0.00 33 1009.3
20260902210404 98 283 0.0 3.0 0.00 0.00 0.00 32 1009.4
20260902205904 98 211 0.0 1.0 0.00 0.00 0.00 33 1009.3
20260902204904 97 216 0.0 3.0 0.00 0.00 0.00 33 1009.6
20260902203404 97 219 0.0 3.0 0.00 0.00 0.00 33 1009.7
20260902202904 98 214 0.0 1.0 0.00 0.00 0.00 33 1009.7
20260902202403 97 211 1.0 3.0 0.00 0.00 0.00 33 1009.9
20260902201904 97 244 0.0 0.0 0.00 0.00 0.00 33 1010.0
20260902200904 97 242 0.0 0.0 0.00 0.00 0.00 34 1010.1
20260902200404 97 250 0.0 0.0 0.00 0.00 0.00 34 1010.2
20260902195904 97 257 0.0 2.0 0.00 0.00 0.00 35 1010.1
20260902194904 96 261 0.0 0.0 0.00 0.00 0.00 36 1010.4
20260902194404 96 195 0.0 0.0 0.00 0.00 0.00 36 1010.5
20260902193904 96 194 0.0 3.0 0.00 0.00 0.00 36 1010.6
20260902192904 96 199 0.0 0.0 0.00 0.00 0.00 37 1010.7
20260902192404 96 199 0.0 0.0 0.00 0.00 0.00 37 1010.8
20260902191904 96 199 0.0 0.0 0.00 0.00 0.00 37 1010.9
20260902191404 96 199 0.0 0.0 0.00 0.00 0.00 37 1011.0
20260902190903 96 187 0.0 0.0 0.00 0.00 0.00 37 1011.1
20260902190404 96 169 0.0 12.0 0.00 0.00 0.00 37 1011.2
20260902185904 96 219 0.0 0.0 0.00 0.00 0.00 37 1011.2
20260902185404 96 199 0.0 0.0 0.00 0.00 0.00 38 1011.3
20260902184904 96 200 0.0 0.0 0.00 0.00 0.00 38 1011.2
20260902184404 96 181 0.0 0.0 0.00 0.00 0.00 40 1011.4
20260902183904 95 181 0.0 0.0 0.00 0.00 0.00 41 1011.5
20260902183404 95 180 1.0 5.0 0.00 0.00 0.00 41 1011.5
20260902182904 95 180 0.0 8.0 0.00 0.00 0.00 40 1011.6
20260902182403 96 204 0.0 0.0 0.00 0.00 0.00 41 1011.6
20260902181904 95 204 0.0 0.0 0.00 0.00 0.00 41 1011.7
20260902181404 95 204 0.0 0.0 0.00 0.00 0.00 40 1011.8
20260902180904 95 204 0.0 0.0 0.00 0.00 0.00 40 1011.8